Skip Navigation Links weather.gov 
NOAA logo-Select to go to the NOAA homepage NDBC Title GraphicClick to go to NDBC home page   Select to go to the NWS homepage
Home About Us Contact Us
 
 
    
    Station List

 Data Access
    Mobile Access
    Classic Maps
         Recent
         DART®
    Obs Search
    Ship Obs Report
    BuoyCAMs
    TAO
    DODS
    OceanSITES
    HF Radar
    OSMC
    Dial-A-Buoy
    RSS Feeds Image indicating link to RSS feed access page
    Web Widget
    Email Access
    Web Data Guide
    Maintenance Schedule
    Station Status Report

 Program Info
    TAO
    DART®
    VOS
    IOOS®

 Publications
    NDBC PEA
    NDBC FONSI
    NDBC DQC Handbook

 FAQ
 Visitor Information
 
USA.gov is the U.S. government's official web portal to all federal, state and local government web resources and services.

Station YKRV2 - 8637611 - York River East Rear Range Light, VA Image indicating link to RSS feed of recent meteorological observations for station YKRV2

Large icon indicates selected station.
yellow diamond Stations with recent data
red diamond Stations with no data in last 8 hours
     (24 hours for tsunami stations)


Conditions at YKRV2 as of
(11:18 am EDT)
1518 GMT on 05/20/2018:
     

Click on the graph icon in the table below to see a time series plot of the last five days of that observation.

5-day plot - Wind Direction Wind Direction (WDIR): WSW ( 240 deg true )
5-day plot - Wind Speed Wind Speed (WSPD): 15 kts
5-day plot - Wind Gust Wind Gust (GST): 17 kts
5-day plot - Atmospheric Pressure Atmospheric Pressure (PRES): 30.11 in
5-day plot - Air Temperature Air Temperature (ATMP): 74.7 °F
5-day plot - Wind Speed at 10 Meters Wind Speed at 10 meters (WSPD10M): 16 kts
5-day plot - Wind Speed at 10 Meters Wind Speed at 20 meters (WSPD20M): 17 kts
5-day plot - Wind Speed, Wind Gust and Atmospheric Pressure Combined plot of Wind Speed, Gust, and Air Pressure
NOS Water Level Observation Network Water Level
Previous observations
5-day plot - Wind Direction 5-day plot - Wind Speed 5-day plot - Wind Gust 5-day plot - Wave Height 5-day plot - Dominant Wave Period 5-day plot - Average Period 5-day plot - Mean Wave Direction 5-day plot - Atmospheric Pressure 5-day plot - Pressure Tendency 5-day plot - Air Temperature 5-day plot - Water Temperature 5-day plot - Dew Point 5-day plot - Salinity 5-day plot - Visibility 5-day plot - Tide (above MLLW)
MM DD TIME
(EDT)
WDIR WSPD
kts
GST
kts
WVHT
ft
DPD
sec
APD
sec
MWD PRES
in
PTDY
in
ATMP
°F
WTMP
°F
DEWP
°F
SAL
psu
VIS
nmi
TIDE
ft
052011:12 amWSW 16 18----30.11- 74.8-----
052011:06 amWSW 17 19----30.10- 74.8-----
052011:00 am SW 18 20----30.10-0.01 75.0-----
052010:54 amWSW 18 20----30.10- 75.2-----
052010:48 amWSW 16 19----30.10- 75.0-----
052010:42 am SW 16 19----30.10- 74.8-----
052010:36 amWSW 18 20----30.10- 74.8-----
052010:30 am SW 16 18----30.10- 74.7-----
052010:24 am SW 18 20----30.10- 74.3-----
052010:18 amWSW 19 22----30.11- 74.5-----
052010:12 amWSW 17 21----30.11- 74.5-----
052010:06 amWSW 18 21----30.11- 74.5-----
052010:00 amWSW 16 20----30.11+0.00 74.3-----
0520 9:54 amWSW 19 22----30.11- 74.5-----
0520 9:48 amWSW 17 21----30.11- 74.3-----
0520 9:42 amWSW 16 19----30.11- 74.1-----
0520 9:36 amWSW 15 19----30.11- 73.9-----
0520 9:30 amWSW 16 20----30.11- 73.9-----
0520 9:24 amWSW 15 18----30.11- 73.8-----
0520 9:18 amWSW 16 18----30.11- 74.1-----
0520 9:12 amWSW 15 18----30.11- 74.1-----
0520 9:06 amWSW 15 19----30.11- 73.9-----
0520 9:00 amWSW 17 21----30.11+0.02 73.9-----
0520 8:54 amWSW 16 20----30.11- 73.6-----
0520 8:48 amWSW 16 19----30.11- 73.8-----
0520 8:42 amWSW 17 19----30.11- 73.9-----
0520 8:36 amWSW 17 20----30.11- 73.8-----
0520 8:30 amWSW 20 25----30.11- 73.8-----
0520 8:24 amWSW 20 24----30.11- 73.6-----
0520 8:18 amWSW 20 23----30.11- 73.6-----
0520 8:12 amWSW 18 20----30.11- 73.6-----
0520 8:06 amWSW 16 19----30.11- 73.4-----
0520 8:00 amWSW 17 20----30.11+0.01 73.4-----
0520 7:54 amWSW 17 20----30.11- 73.4-----
0520 7:48 amWSW 16 18----30.11- 73.4-----
0520 7:42 amWSW 18 22----30.11- 73.4-----
0520 7:36 am SW 18 21----30.11- 73.4-----
0520 7:30 amWSW 19 22----30.11- 73.4-----
0520 7:24 amWSW 19 26----30.11- 73.4-----
0520 7:18 amWSW 19 24----30.11- 73.6-----
0520 7:12 am SW 19 24----30.10- 73.4-----
0520 7:06 am SW 18 21----30.11- 73.4-----
0520 7:00 amWSW 18 22----30.11+0.01 73.2-----
0520 6:54 amWSW 18 22----30.11- 73.2-----
0520 6:48 am SW 20 24----30.10- 73.2-----
0520 6:42 am SW 19 21----30.10- 73.0-----
0520 6:36 am SW 17 20----30.10- 72.9-----
0520 6:30 am SW 20 25----30.09- 73.2-----
0520 6:24 am SW 20 23----30.09- 73.2-----
0520 6:18 am SW 19 24----30.09- 73.0-----
0520 6:12 am SW 19 24----30.09- 73.0-----
0520 6:06 am SW 17 19----30.09- 73.0-----
0520 6:00 am SW 18 22----30.09-0.01 73.2-----
0520 5:54 am SW 19 23----30.09- 73.2-----
0520 5:48 am SW 17 20----30.10- 73.0-----
0520 5:42 amWSW 14 17----30.10- 72.9-----
0520 5:36 am SW 14 16----30.10- 72.9-----
0520 5:30 amWSW 14 20----30.11- 72.9-----
0520 5:24 am SW 12 13----30.11- 72.7-----
0520 5:18 amWSW 12 14----30.11- 72.9-----
0520 5:12 amWSW 12 15----30.11- 73.0-----
0520 5:06 amWSW 14 16----30.11- 73.0-----
0520 5:00 amWSW 15 17----30.11-0.01 73.0-----
0520 4:54 amWSW 13 15----30.11- 72.9-----
0520 4:48 amWSW 14 17----30.11- 73.0-----
0520 4:42 amWSW 14 17----30.11- 73.2-----
0520 4:36 am SW 13 16----30.10- 73.0-----
0520 4:30 am SW 16 19----30.10- 73.2-----
0520 4:24 am SW 14 19----30.10- 73.0-----
0520 4:18 am SW 14 16----30.10- 73.0-----
0520 4:12 am SW 16 20----30.10- 73.2-----
0520 4:06 am SW 15 19----30.10- 73.2-----
0520 4:00 am SW 17 20----30.09-0.03 73.2-----
0520 3:54 am SW 15 18----30.09- 73.2-----
0520 3:48 am SW 16 18----30.09- 73.0-----
0520 3:42 am SW 16 19----30.09- 73.0-----
0520 3:36 am SW 17 22----30.09- 73.2-----
0520 3:30 am SW 16 19----30.09- 73.0-----
0520 3:24 am SW 18 21----30.09- 73.0-----
0520 3:18 am SW 15 19----30.10- 72.9-----
0520 3:12 am SW 15 19----30.10- 72.9-----
0520 3:06 am SW 15 20----30.10- 72.9-----
0520 3:00 am SW 14 16----30.10-0.03 72.9-----
0520 2:54 am SW 15 18----30.11- 73.0-----
0520 2:48 am SW 16 20----30.11- 73.0-----
0520 2:42 am SW 13 16----30.11- 72.9-----
0520 2:36 am SW 12 15----30.11- 72.5-----
0520 2:30 am SW 12 14----30.11- 72.5-----
0520 2:24 am SW 11 13----30.12- 72.3-----
0520 2:18 am SW 12 14----30.12- 72.5-----
0520 2:12 am SW 12 15----30.12- 72.5-----
0520 2:06 am SW 13 16----30.12- 72.5-----
0520 2:00 am SW 14 17----30.12+0.00 72.5-----
0520 1:54 am SW 14 16----30.12- 72.3-----
0520 1:48 am SW 14 16----30.12- 72.3-----
0520 1:42 am SW 13 16----30.12- 72.1-----
0520 1:36 am SW 14 16----30.12- 72.1-----
0520 1:30 am SW 14 17----30.12- 72.3-----
0520 1:24 amSSW 16 19----30.12- 72.5-----
0520 1:18 am SW 17 21----30.12- 72.9-----
0520 1:12 am SW 14 18----30.12- 72.3-----
0520 1:06 amSSW 13 15----30.13- 72.3-----
0520 1:00 am SW 16 21----30.13+0.00 72.1-----
052012:54 am SW 14 16----30.13- 72.1-----
052012:48 am SW 12 15----30.13- 72.1-----
052012:42 amSSW 13 18----30.13- 72.1-----
052012:36 am SW 12 14----30.13- 72.3-----
052012:30 amSSW 13 16----30.13- 72.1-----
052012:24 am SW 13 15----30.13- 72.3-----
052012:18 am SW 14 16----30.13- 72.3-----
052012:12 am SW 14 16----30.13- 72.5-----
052012:06 am SW 16 18----30.13- 72.5-----
052012:00 amSSW 17 20----30.13+0.03 72.9-----
051911:54 pm SW 15 18----30.13- 72.7-----
051911:48 pm SW 15 18----30.13- 72.7-----
051911:42 pm SW 14 18----30.13- 72.7-----
051911:36 pm SW 14 16----30.13- 72.7-----
051911:30 pm SW 17 21----30.12- 73.0-----
051911:24 pm SW 18 20----30.12- 72.9-----
051911:18 pmSSW 16 19----30.12- 72.7-----
051911:12 pmSSW 14 16----30.12- 72.7-----
051911:06 pm SW 13 16----30.13- 72.7-----
051911:00 pm SW 13 16----30.12+0.02 72.7-----
051910:54 pm SW 13 15----30.12- 72.7-----
051910:48 pm SW 13 16----30.12- 72.7-----
051910:42 pm SW 14 16----30.12- 72.9-----
051910:36 pm SW 14 16----30.12- 72.9-----
051910:30 pm SW 16 19----30.12- 73.0-----
051910:24 pm SW 13 16----30.12- 73.0-----
051910:18 pm SW 13 15----30.12- 72.9-----
051910:12 pmSSW 12 14----30.12- 72.9-----
051910:06 pmSSW 12 15----30.12- 72.9-----
051910:00 pmSSW 11 14----30.12+0.00 72.9-----
0519 9:54 pmSSW 12 14----30.12- 72.9-----
0519 9:48 pmSSW 13 16----30.12- 73.0-----
0519 9:42 pmSSW 14 16----30.12- 73.0-----
0519 9:36 pmSSW 16 20----30.12- 73.0-----
0519 9:30 pmSSW 13 14----30.12- 72.7-----
0519 9:24 pmSSW 12 14----30.11- 72.7-----
0519 9:18 pmSSW 13 15----30.11- 72.9-----
0519 9:12 pmSSW 13 16----30.11- 72.7-----
0519 9:06 pm S 12 14----30.11- 72.7-----
0519 9:00 pm S 13 15----30.10-0.02 72.7-----
0519 8:54 pm S 13 16----30.10- 72.7-----
0519 8:48 pm S 13 15----30.11- 72.7-----
0519 8:42 pm S 13 15----30.11- 72.7-----
0519 8:36 pm S 12 13----30.11- 72.5-----
0519 8:30 pm S 12 14----30.10- 72.7-----
0519 8:24 pm S 12 14----30.10- 72.7-----
0519 8:18 pm S 12 14----30.11- 72.7-----
0519 8:12 pm S 11 12----30.11- 72.7-----
0519 8:06 pm S 12 12----30.11- 72.9-----
0519 8:00 pmSSW 12 13----30.11-0.03 73.2-----
0519 7:54 pmSSW 12 13----30.11- 73.0-----
0519 7:48 pmSSW 13 15----30.11- 73.4-----
0519 7:42 pmSSW 15 17----30.11- 73.6-----
0519 7:36 pmSSW 14 16----30.11- 73.6-----
0519 7:30 pmSSW 15 18----30.11- 73.6-----
0519 7:24 pmSSW 16 19----30.11- 73.8-----
0519 7:18 pmSSW 15 19----30.11- 73.6-----
0519 7:12 pmSSW 16 18----30.11- 73.8-----
0519 7:06 pmSSW 14 16----30.11- 73.6-----
0519 7:00 pmSSW 14 15----30.12-0.04 73.4-----
0519 6:54 pmSSW 13 14----30.11- 73.8-----
0519 6:48 pmSSW 12 15----30.11- 73.8-----
0519 6:42 pm SW 12 14----30.11- 73.6-----
0519 6:36 pmSSW 11 12----30.11- 73.4-----
0519 6:30 pmSSW 11 13----30.11- 73.2-----
0519 6:24 pmSSW 13 14----30.12- 73.0-----
0519 6:18 pmSSW 12 13----30.12- 73.2-----
0519 6:12 pmSSW 12 13----30.12- 73.0-----
0519 6:06 pmSSW 12 14----30.12- 73.4-----
0519 6:00 pmSSW 11 13----30.12-0.03 73.2-----
0519 5:54 pmSSW 11 12----30.13- 73.6-----
0519 5:48 pmSSW 13 15----30.13- 73.6-----
0519 5:42 pmSSW 13 14----30.13- 73.2-----
0519 5:36 pmSSW 11 12----30.14- 73.0-----
0519 5:30 pmSSW 11 13----30.14- 73.0-----
0519 5:24 pmSSW 10 11----30.14- 73.2-----
0519 5:18 pmSSW 8 10----30.14- 72.9-----
0519 5:12 pmSSW 8 10----30.14- 72.3-----
0519 5:06 pm SW 7 8----30.14- 72.0-----
0519 5:00 pm SW 8 9----30.14-0.02 71.6-----
0519 4:54 pmWSW 8 10----30.14- 71.4-----
0519 4:48 pmWSW 8 9----30.14- 71.4-----
0519 4:42 pmWSW 8 10----30.14- 71.2-----
0519 4:36 pmWSW 10 13----30.14- 71.1-----
0519 4:30 pmWSW 11 14----30.14- 70.7-----
0519 4:24 pm SW 13 15----30.14- 70.5-----
0519 4:18 pmWSW 15 18----30.14- 70.5-----
0519 4:12 pmWSW 12 17----30.14- 70.7-----
0519 4:06 pm SW 17 23----30.14- 71.1-----
0519 4:00 pmSSW 15 23----30.15-0.01 70.0-----
0519 3:54 pmSSW 8 20----30.15- 73.6-----
0519 3:48 pmWSW 6 7----30.14- 73.6-----
0519 3:42 pmWSW 7 8----30.14- 73.4-----
0519 3:36 pmWSW 8 8----30.14- 73.2-----
0519 3:30 pm SW 8 8----30.14- 73.4-----
0519 3:24 pm SW 7 8----30.14- 73.0-----
0519 3:18 pm SW 6 7----30.14- 73.0-----
0519 3:12 pmSSW 7 8----30.15- 73.0-----
0519 3:06 pm S 8 9----30.15- 72.9-----
0519 3:00 pm S 8 12----30.15-0.02 73.2-----
0519 2:54 pmSSE 10 12----30.15- 72.5-----
0519 2:48 pm S 10 10----30.15- 72.7-----
0519 2:42 pm S 9 9----30.15- 72.3-----
0519 2:36 pmSSW 8 9----30.15- 73.0-----
0519 2:30 pm SW 8 9----30.15- 73.2-----
0519 2:24 pm SW 8 9----30.15- 72.9-----
0519 2:18 pm SW 7 7----30.15- 72.7-----
0519 2:12 pm SW 6 7----30.15- 72.7-----
0519 2:06 pm SW 7 7----30.15- 72.5-----
0519 2:00 pm SW 7 7----30.16-0.02 72.5-----
0519 1:54 pmWSW 6 7----30.15- 72.1-----
0519 1:48 pm W 9 11----30.15- 71.8-----
0519 1:42 pm W 12 13----30.16- 71.8-----
0519 1:36 pm W 11 12----30.16- 72.3-----
0519 1:30 pm W 11 12----30.16- 72.5-----
0519 1:24 pm W 12 15----30.16- 74.5-----
0519 1:18 pmWSW 11 14----30.16- 74.1-----
0519 1:12 pm SW 8 9----30.16- 73.8-----
0519 1:06 pm SW 7 8----30.17- 73.0-----
0519 1:00 pm SW 6 7----30.17-0.01 72.7-----
051912:54 pm SW 5 5----30.17- 72.5-----
051912:48 pmWSW 5 5----30.17- 72.5-----
051912:42 pm SW 5 5----30.17- 72.1-----
051912:36 pm SW 5 5----30.17- 72.1-----
051912:30 pm SW 6 7----30.17- 71.8-----
051912:24 pm SW 7 8----30.17- 71.8-----
051912:18 pm SW 8 9----30.18- 71.6-----
051912:12 pmWSW 9 10----30.17- 71.6-----
051912:06 pm SW 7 9----30.18- 71.1-----
051912:00 pm SW 7 10----30.17+0.00 70.7-----
051911:54 am SW 8 10----30.18- 70.2-----
051911:48 am SW 7 9----30.18- 70.0-----
051911:42 am SW 9 9----30.18- 69.8-----
051911:36 am SW 10 11----30.17- 69.4-----
051911:30 amWSW 12 15----30.18- 69.4-----
051911:24 amWSW 15 18----30.18- 69.4-----
051911:18 amWSW 22 33----30.17- 71.4-----
051911:12 am S 10 12----30.17- 74.1-----
051911:06 am S 12 14----30.17- 74.5-----
051911:00 am S 12 14----30.17+0.00 73.8-----
051910:54 am S 11 12----30.17- 73.6-----

Description of Measurements

Links which are specific to this station are listed below:

Real Time Data in tabular form for the last forty-five days.

Historical Data & Climatic Summaries for quality controlled data for the current month, previous months, and previous years.